[[{"header":{"parameterUnit":"m.s-1","parameterCategory":2,"la1":30.2991,"la2":30.254,"lo1":-89.0895,"lo2":-89.0444,"dy":0.0017,"dx":0.0017,"nx":28,"ny":28,"refTime":"2023-08-08T09:00:00:Z","depth":"0","parameterNumber":2,"parameterNumberName":"U-component_of_CURRENTS"},"data":[0,0,0,0,0,0,0,0,0,0,0,0,0,0,0,0,0,0,0,0,0,0,0,0,0,0,0,0,0,0,0,0,0,0,0,0,0,0,0,0,0,0,0,0,0,0,0,0,0,0,0,0,0,0,0,0,0,0,0.1628,0.1628,0,0.1713,0.1714,0.1716,0.1742,0.1741,0.174,0.1739,0.1687,0.1687,0.1686,0,0,0,0,0,0,0,0,0,0,0,0,0,0.1565,0.1566,0.1627,0.1628,0.1629,0.1713,0.1714,0.1716,0.1742,0.1741,0.174,0.1739,0.1687,0.1687,0.1686,0,0,0,0,0,0,0,0,0,0,0,0,0,0.1619,0.1566,0.1627,0.1648,0.1651,0.1712,0.1714,0.1716,0.1742,0.1741,0.174,0.1738,0.1688,0.1687,0.1686,0.1706,0,0,0.1683,0.1683,0,0,0,0,0,0,0,0,0.1616,0.1622,0.1645,0.1647,0.165,0.1711,0.1673,0.1704,0.1742,0.1712,0.1739,0.1738,0.168,0.168,0.1707,0.1703,0.1701,0.1683,0.1682,0.1682,0.1682,0,0,0,0,0,0,0,0.1612,0.1619,0.1666,0.1645,0.1649,0.168,0.1686,0.1681,0.1703,0.1715,0.1716,0.1718,0.1681,0.1709,0.1706,0.17,0.1683,0.1682,0.1682,0.1681,0.1722,0.1723,0,0,0,0,0,0,0.159,0.1615,0.1663,0.1668,0.1625,0.1682,0.1689,0.1697,0.1706,0.1707,0.1719,0.1719,0.1711,0.1707,0.1704,0.1765,0.1682,0.1681,0.1681,0.172,0.1722,0.1724,0,0,0,0,0,0,0.1589,0.1594,0.166,0.164,0.1649,0.1683,0.1692,0.1699,0.1734,0.1711,0.1709,0.1747,0.171,0.1705,0.1681,0.1761,0.1681,0.168,0.1718,0.1721,0.1723,0.1861,0,0,0,0,0,0,0.1587,0.1593,0.1594,0.1638,0.165,0.1695,0.1693,0.1701,0.1734,0.1735,0.1733,0.1727,0.1708,0.1683,0.168,0.1758,0.1679,0.1716,0.1719,0.1722,0.1855,0.1868,0.188,0,0,0,0,0,0.1584,0.158,0.1594,0.16,0.1649,0.1695,0.1705,0.1728,0.1737,0.1755,0.1736,0.1728,0.1702,0.1682,0.1679,0.1759,0.1715,0.1719,0.1722,0.1849,0.1866,0.1879,0,0,0,0,0,0,0.1559,0.1583,0.1599,0.1605,0.1649,0.1698,0.1704,0.174,0.175,0.1737,0.1726,0.1718,0.1728,0.1713,0.1692,0.1777,0.1718,0.1721,0.1815,0.183,0.1843,0.1834,0.1679,0,0,0,0,0,0.1554,0.1558,0.1599,0.1611,0.162,0.1673,0.1695,0.172,0.1733,0.174,0.1747,0.1744,0.1746,0.1758,0.1739,0.1784,0.1792,0.1838,0.1851,0.1861,0.1851,0.1918,0.1936,0.1736,0.1736,0.1736,0,0,0.1557,0.1564,0.1573,0.1606,0.1633,0.168,0.1684,0.1715,0.1775,0.1727,0.1785,0.1766,0.1754,0.1795,0.1805,0.1796,0.1933,0.1866,0.1876,0.1859,0.1924,0.1943,0.1961,0.1738,0.1738,0.1738,0,0,0.1568,0.156,0.1576,0.1602,0.1636,0.1676,0.169,0.1749,0.1784,0.1828,0.1814,0.1833,0.185,0.1876,0.1886,0.1955,0.1973,0.1972,0.2062,0.2129,0.2147,0.2162,0.2248,0.2269,0.201,0.201,0.201,0,0.1606,0.1598,0.1593,0.1616,0.1644,0.168,0.1729,0.1779,0.1836,0.187,0.1847,0.1904,0.1895,0.1971,0.2001,0.199,0.2028,0.2014,0.2149,0.2164,0.2177,0.226,0.2282,0.2017,0.2016,0.2015,0.2015,0,0.1619,0.1629,0.1633,0.1682,0.1714,0.175,0.1809,0.1859,0.1902,0.1962,0.2022,0.2015,0.2057,0.2085,0.2063,0.2178,0.2178,0.2138,0.2118,0.2206,0.2288,0.2309,0.2027,0.2025,0.2023,0.2021,0,0,0.1721,0.1669,0.1688,0.1688,0.1746,0.1777,0.1861,0.1957,0.2019,0.208,0.2166,0.2205,0.2214,0.2222,0.2229,0.2298,0.2448,0.2274,0.2275,0.2372,0.2626,0.2688,0.2716,0.2443,0.2446,0.2448,0.2664,0,0.1773,0.1792,0.1775,0.1831,0.1835,0.1875,0.1957,0.2038,0.21,0.2185,0.2228,0.2282,0.2272,0.2291,0.237,0.2395,0.2499,0.2394,0.2512,0.2515,0.257,0.2741,0.2765,0.2964,0.2684,0.2687,0.269,0,0.18,0.1807,0.1844,0.1856,0.1874,0.1924,0.2025,0.2102,0.2219,0.2267,0.2346,0.2366,0.2478,0.243,0.2596,0.2533,0.2598,0.2628,0.2637,0.265,0.2615,0.2818,0.3012,0.2835,0.2721,0.2718,0.2716,0,0.1806,0.1851,0.187,0.1879,0.1924,0.1958,0.2013,0.2122,0.2182,0.2308,0.2349,0.2483,0.2529,0.2633,0.2723,0.2669,0.2895,0.2826,0.2958,0.2963,0.2981,0.2982,0.302,0.2961,0.296,0.296,0.2959,0,0.1825,0.1829,0.1862,0.1859,0.1909,0.1949,0.202,0.2093,0.2202,0.2281,0.2378,0.2459,0.2575,0.271,0.2787,0.2973,0.2971,0.3014,0.3039,0.3034,0.3038,0.2875,0.2817,0.2968,0.2966,0.2964,0.2963,0,0.1757,0.1791,0.1785,0.1851,0.1873,0.1897,0.1977,0.2036,0.2147,0.2243,0.2281,0.2463,0.266,0.2802,0.2987,0.3058,0.3148,0.327,0.3275,0.3296,0.3223,0.3174,0.317,0.308,0.3456,0.3459,0.3462,0,0.1704,0.1692,0.1747,0.1762,0.1772,0.1822,0.1867,0.1988,0.2052,0.225,0.2299,0.2515,0.2686,0.3022,0.3217,0.3445,0.3273,0.3569,0.3458,0.3271,0.3234,0.3036,0.2942,0.3558,0.3561,0.3564,0.3566,0,0.1599,0.1618,0.1631,0.1668,0.1701,0.1741,0.1809,0.1857,0.2025,0.2139,0.2333,0.2484,0.2847,0.3089,0.3396,0.3565,0.341,0.3627,0.3433,0.3342,0.3131,0.3038,0.3357,0.3589,0.3587,0.3585,0.3584,0.3583,0.1522,0.151,0.1551,0.1582,0.1613,0.1661,0.1695,0.1803,0.1928,0.2109,0.2299,0.251,0.2841,0.3292,0.3505,0.3715,0.3562,0.362,0.3594,0.3416,0.3274,0.366,0.3902,0.3901,0.3901,0.3901,0.39,0,0.1452,0.1463,0.1473,0.1519,0.1532,0.158,0.1668,0.1718,0.1857,0.2038,0.2233,0.2521,0.2859,0.3186,0.3492,0.3541,0.3506,0.3536,0.323,0.3149,0.3522,0.3463,0.3619,0.3619,0.362,0.362,0.362,0.362,0.1416,0.1424,0.1442,0.1454,0.1474,0.1511,0.1558,0.1641,0.1756,0.1934,0.2072,0.2221,0.2464,0.2837,0.3073,0.3245,0.3027,0.3114,0.294,0.3164,0.3164,0.3164,0.3086,0.3162,0.3161,0.2454,0.2449,0.2446]},{"header":{"parameterUnit":"m.s-1","parameterCategory":2,"la1":30.2991,"la2":30.254,"lo1":-89.0895,"lo2":-89.0444,"dy":0.0017,"dx":0.0017,"nx":28,"ny":28,"refTime":"2023-08-08T09:00:00:Z","depth":"0","parameterNumber":3,"parameterNumberName":"V-component_of_CURRENTS"},"data":[0,0,0,0,0,0,0,0,0,0,0,0,0,0,0,0,0,0,0,0,0,0,0,0,0,0,0,0,0,0,0,0,0,0,0,0,0,0,0,0,0,0,0,0,0,0,0,0,0,0,0,0,0,0,0,0,0,0,-0.0629,-0.0628,0,-0.06,-0.0601,-0.0602,-0.0639,-0.064,-0.064,-0.064,-0.0745,-0.0747,-0.075,0,0,0,0,0,0,0,0,0,0,0,0,0,-0.062,-0.0621,-0.0629,-0.0628,-0.0627,-0.06,-0.0601,-0.0602,-0.0639,-0.064,-0.064,-0.064,-0.0744,-0.0747,-0.075,0,0,0,0,0,0,0,0,0,0,0,0,0,-0.0622,-0.0622,-0.063,-0.0634,-0.0633,-0.06,-0.0601,-0.0602,-0.0639,-0.064,-0.064,-0.0641,-0.0743,-0.0747,-0.075,-0.0764,0,0,-0.0762,-0.0763,0,0,0,0,0,0,0,0,-0.0622,-0.0624,-0.0635,-0.0633,-0.0632,-0.0614,-0.0635,-0.0659,-0.0639,-0.0649,-0.064,-0.0641,-0.0706,-0.0712,-0.072,-0.0769,-0.0773,-0.0762,-0.0764,-0.0766,-0.0767,0,0,0,0,0,0,0,-0.0622,-0.0624,-0.063,-0.0633,-0.0631,-0.0602,-0.0606,-0.064,-0.0686,-0.0648,-0.0648,-0.0626,-0.0708,-0.0717,-0.0723,-0.0775,-0.0762,-0.0765,-0.0767,-0.0769,-0.0801,-0.08,0,0,0,0,0,0,-0.0607,-0.0625,-0.063,-0.0628,-0.0615,-0.0602,-0.0606,-0.0629,-0.0683,-0.0687,-0.0626,-0.0628,-0.071,-0.0719,-0.0727,-0.0728,-0.0766,-0.0769,-0.0771,-0.0803,-0.0801,-0.08,0,0,0,0,0,0,-0.0608,-0.061,-0.0631,-0.0613,-0.0613,-0.0601,-0.0627,-0.0628,-0.0628,-0.0662,-0.0672,-0.0623,-0.0711,-0.0722,-0.0755,-0.0734,-0.0771,-0.0774,-0.0804,-0.0802,-0.08,-0.0743,0,0,0,0,0,0,-0.0609,-0.0612,-0.0625,-0.0614,-0.0613,-0.0597,-0.0625,-0.0626,-0.0609,-0.0612,-0.0663,-0.0674,-0.0712,-0.0749,-0.0759,-0.0739,-0.0777,-0.0806,-0.0804,-0.0801,-0.0747,-0.0739,-0.0733,0,0,0,0,0,-0.0609,-0.0606,-0.0628,-0.0626,-0.0633,-0.0595,-0.0593,-0.0592,-0.0608,-0.0599,-0.0644,-0.0672,-0.0739,-0.0752,-0.0763,-0.0744,-0.0807,-0.0804,-0.0801,-0.075,-0.0741,-0.0733,0,0,0,0,0,0,-0.0594,-0.0608,-0.0632,-0.0633,-0.0612,-0.0597,-0.0572,-0.0583,-0.0609,-0.0621,-0.0671,-0.0684,-0.0703,-0.0727,-0.074,-0.0742,-0.0771,-0.077,-0.0727,-0.0719,-0.0712,-0.0671,-0.078,0,0,0,0,0,-0.0601,-0.0612,-0.0609,-0.0602,-0.0591,-0.0587,-0.0572,-0.0578,-0.0588,-0.0599,-0.0631,-0.0666,-0.0698,-0.0713,-0.0744,-0.0752,-0.0768,-0.074,-0.0733,-0.0727,-0.0698,-0.0724,-0.0717,-0.079,-0.079,-0.079,0,0,-0.058,-0.0593,-0.0593,-0.0599,-0.0585,-0.0551,-0.0582,-0.055,-0.0534,-0.0609,-0.0604,-0.0651,-0.0696,-0.0708,-0.0715,-0.0727,-0.0712,-0.0723,-0.0718,-0.0692,-0.072,-0.0713,-0.0707,-0.0787,-0.0788,-0.0788,0,0,-0.0526,-0.0567,-0.055,-0.0535,-0.0514,-0.0514,-0.0501,-0.0492,-0.0506,-0.0509,-0.0561,-0.0589,-0.0625,-0.0654,-0.0675,-0.0644,-0.0681,-0.065,-0.0581,-0.0607,-0.0601,-0.0597,-0.0602,-0.0598,-0.064,-0.064,-0.064,0,-0.052,-0.0502,-0.0528,-0.0498,-0.0468,-0.0492,-0.0446,-0.0456,-0.0462,-0.0474,-0.0494,-0.0546,-0.0592,-0.0608,-0.0596,-0.0628,-0.0643,-0.0616,-0.0599,-0.0594,-0.0591,-0.0598,-0.0594,-0.0637,-0.0638,-0.0638,-0.0638,0,-0.0441,-0.0428,-0.0401,-0.0392,-0.0364,-0.0327,-0.0332,-0.0337,-0.0357,-0.0371,-0.0393,-0.0454,-0.048,-0.0499,-0.0541,-0.0532,-0.0552,-0.0596,-0.0622,-0.058,-0.059,-0.0587,-0.0633,-0.0634,-0.0635,-0.0636,0,0,-0.046,-0.0374,-0.0376,-0.0339,-0.0313,-0.0283,-0.0261,-0.0254,-0.0247,-0.0273,-0.0258,-0.0316,-0.0353,-0.0376,-0.0435,-0.045,-0.0448,-0.0499,-0.0502,-0.0507,-0.0488,-0.048,-0.0478,-0.0498,-0.0498,-0.0497,-0.0505,0,-0.0409,-0.0327,-0.0301,-0.0214,-0.0162,-0.0173,-0.015,-0.0153,-0.0168,-0.0166,-0.023,-0.024,-0.0306,-0.0322,-0.0349,-0.0428,-0.0438,-0.044,-0.0524,-0.0525,-0.0527,-0.0473,-0.039,-0.0388,-0.0503,-0.0502,-0.0502,0,-0.0362,-0.0311,-0.0215,-0.0133,-0.0116,-0.0074,-0.0051,-0.0033,-0.005,-0.0066,-0.0083,-0.0128,-0.0156,-0.0218,-0.0303,-0.0304,-0.0374,-0.0431,-0.0435,-0.0439,-0.0512,-0.0449,-0.038,-0.0342,-0.0499,-0.0499,-0.0499,0,-0.0357,-0.0261,-0.0183,-0.0152,-0.0066,-0.0039,-0.0011,-0.0007,0.0006,0.0007,0.0027,-0.0029,-0.0044,-0.0135,-0.0245,-0.0278,-0.033,-0.0402,-0.0454,-0.0455,-0.0401,-0.0398,-0.0303,-0.0442,-0.0442,-0.0442,-0.0442,0,-0.0323,-0.0255,-0.0174,-0.0125,-0.0058,-0.0008,0.0044,0.0053,0.0083,0.0127,0.0082,0.0114,-0.0023,-0.0073,-0.0194,-0.0295,-0.0294,-0.041,-0.0448,-0.0378,-0.0373,-0.0354,-0.0427,-0.0443,-0.0443,-0.0443,-0.0443,0,-0.0298,-0.0248,-0.0147,-0.006,-0.004,0.0011,0.0087,0.0123,0.0149,0.0216,0.0229,0.022,0.0171,0.0039,-0.0096,-0.0216,-0.0331,-0.0367,-0.026,-0.0284,-0.0315,-0.0391,-0.049,-0.0423,-0.0424,-0.0424,-0.0424,0,-0.0259,-0.021,-0.0115,-0.0072,-0.0021,0.0047,0.0088,0.0138,0.0201,0.0291,0.0339,0.033,0.0348,0.017,-0.002,-0.0196,-0.028,-0.0267,-0.0318,-0.0265,-0.0378,-0.05,-0.0443,-0.0225,-0.0223,-0.0222,-0.0221,0,-0.0189,-0.0171,-0.0098,-0.0022,0.004,0.0118,0.0203,0.0265,0.0347,0.0432,0.0558,0.0591,0.0451,0.0366,0.0121,-0.0048,-0.0247,-0.0244,-0.0213,-0.0217,-0.032,-0.0288,-0.0264,-0.0207,-0.0208,-0.0209,-0.021,-0.0211,-0.0153,-0.0097,-0.003,0.0048,0.0113,0.0223,0.0325,0.0437,0.0577,0.0782,0.0764,0.0897,0.0744,0.0443,0.0225,-0.0042,-0.0158,-0.0108,-0.0205,-0.0331,-0.0258,-0.0191,-0.017,-0.0171,-0.0172,-0.0173,-0.0174,0,-0.0105,-0.0043,0.0036,0.0151,0.0248,0.0269,0.0426,0.0571,0.079,0.0959,0.111,0.1181,0.1007,0.0718,0.0335,0.0102,-0.0029,-0.0027,-0.0127,-0.0066,0.0009,0.0038,0.0138,0.0138,0.0138,0.0138,0.0138,0.0138,-0.0072,0.0015,0.0069,0.0256,0.0342,0.0525,0.0642,0.0855,0.1025,0.1318,0.1463,0.1525,0.1367,0.0762,0.0346,0.0186,0.0053,-0.0109,-0.0113,-0.0005,-0.0017,-0.0029,-0.0008,0.008,0.008,-0.0077,-0.0079,-0.0081]}],[{"header":{"parameterUnit":"m.s-1","parameterCategory":2,"la1":30.2991,"la2":30.254,"lo1":-89.0895,"lo2":-89.0444,"dy":0.0017,"dx":0.0017,"nx":28,"ny":28,"refTime":"2023-08-08T09:00:00:Z","depth":"2","parameterNumber":2,"parameterNumberName":"U-component_of_CURRENTS"},"data":[0,0,0,0,0,0,0,0,0,0,0,0,0,0,0,0,0,0,0,0,0,0,0,0,0,0,0,0,0,0,0,0,0,0,0,0,0,0,0,0,0,0,0,0,0,0,0,0,0,0,0,0,0,0,0,0,0,0,-0.1341,-0.134,0,-0.1247,-0.1247,-0.1247,-0.1169,-0.1168,-0.1166,-0.1164,-0.1053,-0.1052,-0.1051,0,0,0,0,0,0,0,0,0,0,0,0,0,-0.148,-0.1479,-0.1342,-0.134,-0.1337,-0.1247,-0.1247,-0.1246,-0.117,-0.1168,-0.1166,-0.1164,-0.1054,-0.1052,-0.105,0,0,0,0,0,0,0,0,0,0,0,0,0,-0.1416,-0.1478,-0.1342,-0.1281,-0.1274,-0.1247,-0.1247,-0.1246,-0.117,-0.1168,-0.1165,-0.1163,-0.1054,-0.1052,-0.105,-0.1088,0,0,-0.1044,-0.1043,0,0,0,0,0,0,0,0,-0.1419,-0.1412,-0.1292,-0.1285,-0.1277,-0.1209,-0.1254,-0.1189,-0.1171,-0.122,-0.1164,-0.1161,-0.1099,-0.1093,-0.1095,-0.1083,-0.1078,-0.1044,-0.1042,-0.1042,-0.1041,0,0,0,0,0,0,0,-0.1424,-0.1415,-0.1314,-0.129,-0.1281,-0.1266,-0.1255,-0.1243,-0.1182,-0.1215,-0.1207,-0.1182,-0.1096,-0.1098,-0.1092,-0.1077,-0.1044,-0.1042,-0.1041,-0.104,-0.0857,-0.0853,0,0,0,0,0,0,-0.1418,-0.142,-0.1317,-0.131,-0.1333,-0.1265,-0.1253,-0.1241,-0.1182,-0.1168,-0.1184,-0.1179,-0.1102,-0.1094,-0.1088,-0.0937,-0.1042,-0.104,-0.1038,-0.086,-0.0856,-0.0852,0,0,0,0,0,0,-0.1421,-0.141,-0.132,-0.1354,-0.134,-0.1264,-0.1252,-0.1241,-0.1175,-0.1157,-0.1144,-0.1121,-0.11,-0.109,-0.1,-0.0939,-0.1039,-0.1037,-0.0865,-0.0859,-0.0854,-0.0759,0,0,0,0,0,0,-0.1426,-0.1413,-0.1389,-0.1354,-0.1338,-0.1268,-0.1253,-0.124,-0.1163,-0.1153,-0.11,-0.1091,-0.1097,-0.1002,-0.0997,-0.0938,-0.1035,-0.0869,-0.0862,-0.0856,-0.0766,-0.0751,-0.0737,0,0,0,0,0,-0.1432,-0.14,-0.1389,-0.1374,-0.1313,-0.1265,-0.1256,-0.1201,-0.1161,-0.1133,-0.1071,-0.1089,-0.0955,-0.0998,-0.0993,-0.0932,-0.0872,-0.0864,-0.0856,-0.0773,-0.0754,-0.0738,0,0,0,0,0,0,-0.1431,-0.1387,-0.1374,-0.1326,-0.1284,-0.1247,-0.1174,-0.1167,-0.1101,-0.1034,-0.1052,-0.1039,-0.0907,-0.0942,-0.0989,-0.0854,-0.0914,-0.0905,-0.0852,-0.0834,-0.082,-0.0808,-0.1033,0,0,0,0,0,-0.1427,-0.1403,-0.1354,-0.1317,-0.1256,-0.1211,-0.1172,-0.1128,-0.107,-0.1034,-0.1019,-0.0963,-0.0886,-0.0876,-0.0806,-0.0776,-0.0762,-0.0728,-0.0713,-0.0701,-0.0684,-0.056,-0.0533,-0.0825,-0.0825,-0.0826,0,0,-0.1414,-0.1388,-0.137,-0.1316,-0.1244,-0.1176,-0.1178,-0.1062,-0.1029,-0.1032,-0.0949,-0.0878,-0.0846,-0.076,-0.0714,-0.0786,-0.062,-0.0691,-0.0681,-0.067,-0.0549,-0.052,-0.0495,-0.082,-0.0821,-0.0822,0,0,-0.1368,-0.1327,-0.1272,-0.1226,-0.111,-0.1089,-0.1044,-0.0968,-0.093,-0.086,-0.0809,-0.0713,-0.0669,-0.0633,-0.061,-0.0486,-0.0497,-0.0457,-0.0435,-0.0315,-0.029,-0.0268,-0.0262,-0.024,-0.051,-0.051,-0.051,0,-0.1338,-0.1273,-0.1248,-0.1169,-0.1098,-0.1042,-0.0941,-0.0922,-0.0853,-0.0815,-0.08,-0.0636,-0.0608,-0.0506,-0.0454,-0.0452,-0.0414,-0.0512,-0.0296,-0.0273,-0.0252,-0.0251,-0.0228,-0.0504,-0.0505,-0.0505,-0.0506,0,-0.1241,-0.1178,-0.1108,-0.1017,-0.0968,-0.0843,-0.0801,-0.0748,-0.0692,-0.0688,-0.0536,-0.0484,-0.0397,-0.0376,-0.038,-0.0223,-0.0254,-0.0244,-0.0347,-0.0217,-0.0226,-0.0203,-0.0496,-0.0498,-0.05,-0.0501,0,0,-0.1137,-0.1061,-0.1005,-0.0961,-0.0843,-0.0787,-0.0712,-0.0634,-0.0571,-0.0512,-0.0425,-0.0305,-0.0256,-0.0222,-0.0199,-0.0143,0.0018,-0.0138,-0.0134,-0.0146,0.023,0.023,0.0252,0.0088,0.0094,0.0099,0.0144,0,-0.1017,-0.0882,-0.0867,-0.073,-0.0644,-0.0598,-0.0564,-0.0509,-0.0457,-0.0385,-0.0312,-0.0183,-0.0212,-0.0112,-0.0053,0.0048,0.0092,0.0,0.0118,0.0119,0.0097,0.0286,0.0124,0.0159,0.0165,0.0169,0.0172,0,-0.0849,-0.0813,-0.0651,-0.0607,-0.0544,-0.0464,-0.0341,-0.0313,-0.0245,-0.0198,-0.0091,-0.0029,0.0096,0.0079,0.0241,0.0198,0.0237,0.0261,0.0264,0.0255,0.0166,0.0044,0.0198,0.0209,0.0206,0.0203,0.02,0,-0.0711,-0.0625,-0.05,-0.0462,-0.0419,-0.0318,-0.0264,-0.0206,-0.0163,-0.0031,0.0061,0.0165,0.0303,0.0376,0.042,0.0382,0.0575,0.0518,0.052,0.0513,0.0393,0.037,0.0657,0.0657,0.0657,0.0657,0.0657,0,-0.0535,-0.0456,-0.0422,-0.0317,-0.0205,-0.0209,-0.0058,-0.0001,0.0069,0.0163,0.0209,0.0342,0.0416,0.0509,0.0498,0.0588,0.0647,0.058,0.0577,0.0415,0.0395,0.0454,0.0429,0.0659,0.0658,0.0658,0.0658,0,-0.0392,-0.0357,-0.0265,-0.0167,-0.0105,-0.0025,0.0096,0.0131,0.0227,0.0376,0.0455,0.0549,0.0707,0.0696,0.0812,0.0729,0.0775,0.0778,0.0526,0.0498,0.0585,0.0565,0.0796,0.0797,0.0799,0.08,0.0801,0,-0.0265,-0.0222,-0.0084,-0.0045,0.0034,0.0132,0.0192,0.0257,0.0304,0.0506,0.0594,0.0792,0.0855,0.0944,0.0897,0.0859,0.0891,0.0694,0.0616,0.0652,0.0625,0.0602,0.0581,0.044,0.0438,0.0436,0.0435,0,-0.015,-0.0124,-0.0079,0.0061,0.0154,0.0216,0.0352,0.0418,0.049,0.061,0.08,0.0868,0.0962,0.0886,0.0837,0.0772,0.0684,0.0663,0.0844,0.0451,0.0329,0.0297,0.0286,0.0419,0.0421,0.0422,0.0423,0.0424,-0.0138,-0.0076,0.0002,0.0107,0.0164,0.0301,0.0425,0.0474,0.0583,0.0705,0.0772,0.0833,0.0749,0.0662,0.0628,0.0647,0.0674,0.0553,0.0553,0.0557,0.053,0.0421,0.0515,0.0517,0.0518,0.052,0.0521,0,-0.0097,-0.0026,0.0056,0.0168,0.0232,0.0342,0.0495,0.0541,0.0678,0.0676,0.0708,0.0559,0.0428,0.0516,0.0499,0.0416,0.034,0.041,0.0296,0.0307,0.0319,0.0278,0.0197,0.0198,0.0198,0.0198,0,0,-0.013,-0.0022,0.0073,0.0215,0.033,0.0531,0.0666,0.0687,0.0708,0.0615,0.0614,0.035,0.0463,0.0339,0.0233,0.0295,0.0316,0.0257,0.0491,0.037,0.0384,0.0347,0.0292,0,0,0,0,0]},{"header":{"parameterUnit":"m.s-1","parameterCategory":2,"la1":30.2991,"la2":30.254,"lo1":-89.0895,"lo2":-89.0444,"dy":0.0017,"dx":0.0017,"nx":28,"ny":28,"refTime":"2023-08-08T09:00:00:Z","depth":"2","parameterNumber":3,"parameterNumberName":"V-component_of_CURRENTS"},"data":[0,0,0,0,0,0,0,0,0,0,0,0,0,0,0,0,0,0,0,0,0,0,0,0,0,0,0,0,0,0,0,0,0,0,0,0,0,0,0,0,0,0,0,0,0,0,0,0,0,0,0,0,0,0,0,0,0,0,0.0105,0.0104,0,0.0038,0.0039,0.0039,-0.001,-0.0012,-0.0013,-0.0014,-0.0091,-0.0092,-0.0093,0,0,0,0,0,0,0,0,0,0,0,0,0,0.0211,0.021,0.0105,0.0103,0.0102,0.0038,0.0039,0.0039,-0.001,-0.0012,-0.0013,-0.0015,-0.0091,-0.0092,-0.0093,0,0,0,0,0,0,0,0,0,0,0,0,0,0.0168,0.021,0.0106,0.0061,0.0055,0.0038,0.0039,0.0039,-0.0009,-0.0012,-0.0014,-0.0016,-0.0091,-0.0092,-0.0093,-0.0053,0,0,-0.0096,-0.0096,0,0,0,0,0,0,0,0,0.0171,0.0166,0.0069,0.0064,0.0057,0.0009,0.0047,0.0003,-0.0009,0.0028,-0.0015,-0.0017,-0.0065,-0.0068,-0.0058,-0.0056,-0.006,-0.0096,-0.0096,-0.0097,-0.0097,0,0,0,0,0,0,0,0.0174,0.0169,0.0091,0.0067,0.006,0.0049,0.0042,0.004,0.0005,0.0025,0.0018,-0.0008,-0.0067,-0.0057,-0.0061,-0.0061,-0.0096,-0.0097,-0.0097,-0.0098,-0.0221,-0.0224,0,0,0,0,0,0,0.0159,0.0172,0.0093,0.0088,0.0096,0.0048,0.0041,0.0037,0.0005,-0.0006,-0.0006,-0.0011,-0.0054,-0.0059,-0.0064,-0.0134,-0.0097,-0.0098,-0.0098,-0.0218,-0.0222,-0.0225,0,0,0,0,0,0,0.0162,0.0154,0.0096,0.0117,0.0107,0.0048,0.0045,0.0037,-0.0008,-0.0021,-0.003,-0.0051,-0.0056,-0.0062,-0.0105,-0.0133,-0.0098,-0.0099,-0.0215,-0.0219,-0.0223,-0.02,0,0,0,0,0,0,0.0166,0.0156,0.0152,0.0117,0.0105,0.0058,0.0045,0.0037,-0.0023,-0.003,-0.0061,-0.0068,-0.0058,-0.0103,-0.0106,-0.0134,-0.01,-0.0212,-0.0217,-0.0222,-0.0197,-0.0203,-0.0207,0,0,0,0,0,0.0171,0.0173,0.0153,0.0142,0.0101,0.0056,0.005,0.0008,-0.0024,-0.004,-0.0067,-0.0069,-0.014,-0.0105,-0.0107,-0.0136,-0.0209,-0.0216,-0.0221,-0.0195,-0.0202,-0.0207,0,0,0,0,0,0,0.0207,0.0166,0.0143,0.013,0.0079,0.0042,0.0024,-0.0018,-0.0049,-0.0066,-0.0078,-0.0085,-0.0147,-0.0152,-0.0114,-0.0198,-0.0185,-0.0192,-0.0165,-0.0171,-0.0176,-0.0131,-0.01,0,0,0,0,0,0.0214,0.0218,0.0152,0.0142,0.0111,0.0058,0.0031,-0.0009,-0.0047,-0.0065,-0.009,-0.0128,-0.0163,-0.0176,-0.0207,-0.0225,-0.0217,-0.026,-0.0265,-0.0269,-0.0241,-0.025,-0.0251,-0.0245,-0.0245,-0.0245,0,0,0.0224,0.0203,0.0202,0.0151,0.0115,0.0093,0.0038,-0.0019,-0.0036,-0.0066,-0.0095,-0.015,-0.0181,-0.0213,-0.0241,-0.0221,-0.0277,-0.0277,-0.0279,-0.0248,-0.0256,-0.0256,-0.0255,-0.0249,-0.0248,-0.0247,0,0,0.025,0.0223,0.0226,0.019,0.0115,0.0091,0.0057,-0.0012,-0.0047,-0.0083,-0.013,-0.0191,-0.0229,-0.0249,-0.0264,-0.0317,-0.0317,-0.0367,-0.0327,-0.0337,-0.0336,-0.0334,-0.0345,-0.0345,-0.035,-0.035,-0.035,0,0.0255,0.026,0.0214,0.02,0.0178,0.0086,0.0072,0.0035,-0.0039,-0.0065,-0.0097,-0.019,-0.0229,-0.0261,-0.029,-0.032,-0.0332,-0.0289,-0.0336,-0.0335,-0.0333,-0.0345,-0.0344,-0.035,-0.035,-0.035,-0.035,0,0.0279,0.0275,0.0267,0.0243,0.0216,0.0182,0.0117,0.0069,0.001,-0.0028,-0.0109,-0.0161,-0.0212,-0.026,-0.0281,-0.032,-0.0335,-0.0349,-0.03,-0.0331,-0.0344,-0.0343,-0.0349,-0.035,-0.035,-0.035,0,0,0.0301,0.029,0.0278,0.0287,0.0231,0.0211,0.0179,0.0127,0.0105,0.0016,-0.0001,-0.01,-0.0164,-0.0189,-0.0255,-0.0264,-0.0287,-0.0302,-0.0302,-0.0275,-0.0316,-0.0259,-0.0253,-0.031,-0.031,-0.031,-0.0333,0,0.0322,0.0329,0.0315,0.0327,0.0331,0.0266,0.0258,0.0199,0.0145,0.0107,0.0012,-0.0033,-0.0127,-0.0162,-0.0197,-0.0271,-0.0284,-0.0279,-0.0321,-0.0322,-0.0236,-0.0249,-0.0234,-0.0246,-0.0333,-0.0333,-0.0333,0,0.0335,0.0354,0.0363,0.039,0.0378,0.037,0.034,0.0323,0.0249,0.0206,0.0132,0.0054,-0.0019,-0.0074,-0.0185,-0.0184,-0.0247,-0.0289,-0.0291,-0.0232,-0.0263,-0.0232,-0.0243,-0.0332,-0.0332,-0.0332,-0.0332,0,0.0362,0.0386,0.0405,0.0405,0.0408,0.0395,0.0391,0.0337,0.0335,0.027,0.0266,0.0147,0.0107,0.0004,-0.0131,-0.0159,-0.0215,-0.0262,-0.0263,-0.0261,-0.0247,-0.0243,-0.0302,-0.0302,-0.0302,-0.0301,-0.0301,0,0.0373,0.0403,0.0419,0.0414,0.045,0.0445,0.0462,0.042,0.0413,0.0433,0.0315,0.0314,0.0128,0.0052,-0.008,-0.0165,-0.0184,-0.0239,-0.0252,-0.0245,-0.024,-0.0312,-0.0313,-0.0302,-0.0302,-0.0302,-0.0302,0,0.0381,0.0386,0.044,0.0454,0.0449,0.048,0.0512,0.0546,0.0519,0.0549,0.0536,0.0443,0.0339,0.0168,0.0022,-0.0069,-0.0169,-0.0189,-0.0166,-0.0174,-0.0225,-0.0226,-0.0195,-0.0193,-0.0191,-0.019,-0.0188,0,0.0363,0.0393,0.0442,0.048,0.0479,0.0529,0.0561,0.0572,0.0629,0.0634,0.0666,0.0578,0.0521,0.0332,0.0154,-0.0029,-0.0105,-0.0103,-0.0141,-0.0192,-0.021,-0.0213,-0.0215,-0.0141,-0.014,-0.0139,-0.0138,0,0.0365,0.0398,0.0457,0.0525,0.0574,0.0644,0.0698,0.0752,0.0791,0.0838,0.0886,0.0846,0.0653,0.0452,0.0211,0.0108,-0.0079,-0.0079,-0.0137,-0.0152,-0.0138,-0.0156,-0.0162,-0.0127,-0.0128,-0.0129,-0.0129,-0.013,0.0407,0.0449,0.0519,0.0613,0.0684,0.0751,0.0819,0.092,0.1024,0.1018,0.0979,0.087,0.0579,0.025,0.0129,0.0055,0.0046,-0.0053,-0.0059,-0.0066,-0.0036,-0.0018,0.002,0.002,0.002,0.002,0.002,0,0.0438,0.0487,0.058,0.0706,0.0817,0.0798,0.0912,0.1003,0.1149,0.1041,0.1006,0.0658,0.0439,0.0211,0.0132,0.0046,0.0029,0.0004,-0.0049,-0.0057,-0.0065,-0.0039,0.0018,0.0018,0.0017,0.0017,0,0,0.0473,0.0552,0.0604,0.0789,0.0865,0.0971,0.1029,0.1168,0.116,0.1039,0.0875,0.0519,0.0351,0.0175,0.0063,0.0084,0.0049,0.0098,0.0115,0.0063,0.0055,-0.0075,-0.0039,0,0,0,0,0]}],[{"header":{"parameterUnit":"m.s-1","parameterCategory":2,"la1":30.2991,"la2":30.254,"lo1":-89.0895,"lo2":-89.0444,"dy":0.0017,"dx":0.0017,"nx":28,"ny":28,"refTime":"2023-08-08T09:00:00:Z","depth":"4","parameterNumber":2,"parameterNumberName":"U-component_of_CURRENTS"},"data":[0,0,0,0,0,0,0,0,0,0,0,0,0,0,0,0,0,0,0,0,0,0,0,0,0,0,0,0,0,0,0,0,0,0,0,0,0,0,0,0,0,0,0,0,0,0,0,0,0,0,0,0,0,0,0,0,0,0,-0.0659,-0.0659,0,-0.0662,-0.0662,-0.0662,-0.0671,-0.0671,-0.0671,-0.0671,-0.0733,-0.0735,-0.0736,0,0,0,0,0,0,0,0,0,0,0,0,0,-0.0663,-0.0663,-0.0659,-0.0659,-0.0659,-0.0662,-0.0662,-0.0662,-0.0671,-0.0671,-0.0671,-0.0672,-0.0733,-0.0734,-0.0736,0,0,0,0,0,0,0,0,0,0,0,0,0,-0.0663,-0.0663,-0.0659,-0.0663,-0.0664,-0.0662,-0.0662,-0.0662,-0.0671,-0.0671,-0.0671,-0.0672,-0.0732,-0.0734,-0.0737,-0.0746,0,0,-0.0743,-0.0744,0,0,0,0,0,0,0,0,-0.0663,-0.0663,-0.0663,-0.0663,-0.0663,-0.0666,-0.0686,-0.0693,-0.0671,-0.0669,-0.0671,-0.0672,-0.0716,-0.0719,-0.0719,-0.0748,-0.0751,-0.0744,-0.0745,-0.0746,-0.0747,0,0,0,0,0,0,0,-0.0663,-0.0663,-0.066,-0.0663,-0.0663,-0.0666,-0.0666,-0.0687,-0.0692,-0.0669,-0.0669,-0.0669,-0.0716,-0.0717,-0.0721,-0.0752,-0.0744,-0.0745,-0.0747,-0.0748,-0.0854,-0.0855,0,0,0,0,0,0,-0.0662,-0.0663,-0.066,-0.066,-0.0664,-0.0665,-0.0666,-0.0665,-0.0691,-0.0694,-0.0669,-0.0669,-0.0713,-0.0718,-0.0723,-0.0761,-0.0746,-0.0748,-0.0749,-0.0853,-0.0854,-0.0856,0,0,0,0,0,0,-0.0662,-0.0661,-0.066,-0.0662,-0.0662,-0.0665,-0.0664,-0.0665,-0.0676,-0.069,-0.0695,-0.068,-0.0713,-0.072,-0.0755,-0.0762,-0.0749,-0.0751,-0.0851,-0.0853,-0.0855,-0.082,0,0,0,0,0,0,-0.0662,-0.0661,-0.0665,-0.0661,-0.0661,-0.0661,-0.0664,-0.0665,-0.0675,-0.0676,-0.0701,-0.0706,-0.0714,-0.0752,-0.0758,-0.0765,-0.0753,-0.0849,-0.0852,-0.0854,-0.0819,-0.0821,-0.0822,0,0,0,0,0,-0.0662,-0.0663,-0.0665,-0.0665,-0.0665,-0.0661,-0.0661,-0.0665,-0.0675,-0.0677,-0.0703,-0.0706,-0.0774,-0.0755,-0.0761,-0.0769,-0.0848,-0.0851,-0.0854,-0.0819,-0.082,-0.0822,0,0,0,0,0,0,-0.0666,-0.0664,-0.0666,-0.0667,-0.0666,-0.0662,-0.0665,-0.0672,-0.0692,-0.0705,-0.0719,-0.0726,-0.0766,-0.0779,-0.0757,-0.0814,-0.0814,-0.0819,-0.0785,-0.0787,-0.0788,-0.0817,-0.0755,0,0,0,0,0,-0.0668,-0.067,-0.0667,-0.0668,-0.0667,-0.067,-0.0672,-0.068,-0.0694,-0.0703,-0.0721,-0.0753,-0.0783,-0.0793,-0.0826,-0.0846,-0.0857,-0.0862,-0.0863,-0.0863,-0.0895,-0.0909,-0.0913,-0.0867,-0.0867,-0.0867,0,0,-0.067,-0.0669,-0.0671,-0.0669,-0.0669,-0.0671,-0.0672,-0.0682,-0.0694,-0.0709,-0.0737,-0.0764,-0.0795,-0.0823,-0.0841,-0.0832,-0.0876,-0.0868,-0.0867,-0.09,-0.0913,-0.0917,-0.0921,-0.0869,-0.0869,-0.0868,0,0,-0.0666,-0.0673,-0.067,-0.0673,-0.0678,-0.0681,-0.0687,-0.0695,-0.0709,-0.074,-0.0759,-0.079,-0.0831,-0.0845,-0.086,-0.0893,-0.0892,-0.0906,-0.092,-0.0931,-0.0934,-0.0937,-0.0919,-0.0921,-0.0893,-0.0893,-0.0893,0,-0.067,-0.0662,-0.0669,-0.0669,-0.0672,-0.0687,-0.0689,-0.0705,-0.0728,-0.0739,-0.0755,-0.0821,-0.0844,-0.0869,-0.0892,-0.0894,-0.0897,-0.0898,-0.0929,-0.0933,-0.0937,-0.0918,-0.0921,-0.0892,-0.0892,-0.0892,-0.0892,0,-0.0659,-0.0661,-0.066,-0.0664,-0.0674,-0.0678,-0.0699,-0.0717,-0.0742,-0.0757,-0.0802,-0.0836,-0.0877,-0.0881,-0.0905,-0.0942,-0.0932,-0.0932,-0.0914,-0.0939,-0.0918,-0.0921,-0.089,-0.089,-0.0891,-0.0891,0,0,-0.0648,-0.0649,-0.0652,-0.0653,-0.0675,-0.0679,-0.0705,-0.072,-0.0737,-0.0776,-0.0792,-0.086,-0.0889,-0.0914,-0.0931,-0.0947,-0.0965,-0.0963,-0.0964,-0.0927,-0.0975,-0.0837,-0.0826,-0.0966,-0.0968,-0.0969,-0.0934,0,-0.0635,-0.0625,-0.0639,-0.0645,-0.0641,-0.0671,-0.0688,-0.0716,-0.0748,-0.0769,-0.0809,-0.085,-0.0895,-0.092,-0.0947,-0.098,-0.0981,-0.0975,-0.0977,-0.0977,-0.0835,-0.0829,-0.0974,-0.0936,-0.0937,-0.0938,-0.0938,0,-0.0619,-0.0612,-0.0609,-0.0624,-0.0628,-0.0645,-0.0677,-0.0699,-0.0736,-0.0768,-0.0817,-0.0851,-0.091,-0.0933,-0.0996,-0.0993,-0.1004,-0.1009,-0.1006,-0.0903,-0.0845,-0.0921,-0.0944,-0.0944,-0.0943,-0.0943,-0.0942,0,-0.0593,-0.0598,-0.0592,-0.0598,-0.0618,-0.0634,-0.0655,-0.0697,-0.0717,-0.0776,-0.0794,-0.0863,-0.0908,-0.0946,-0.0976,-0.1005,-0.1002,-0.1026,-0.0895,-0.0884,-0.1035,-0.1032,-0.1055,-0.1055,-0.1055,-0.1055,-0.1055,0,-0.0566,-0.0566,-0.0581,-0.058,-0.0583,-0.0619,-0.0641,-0.0674,-0.0717,-0.073,-0.0803,-0.0808,-0.0926,-0.0927,-0.0956,-0.0917,-0.0982,-0.0905,-0.0871,-0.1016,-0.1012,-0.1034,-0.1032,-0.1053,-0.1054,-0.1054,-0.1054,0,-0.0539,-0.0543,-0.0541,-0.0561,-0.0569,-0.0581,-0.0625,-0.0634,-0.0694,-0.0712,-0.0734,-0.0796,-0.0809,-0.0843,-0.0885,-0.0875,-0.0848,-0.0803,-0.092,-0.0892,-0.0736,-0.0733,-0.0697,-0.0692,-0.0687,-0.0684,-0.0681,0,-0.0518,-0.0509,-0.0526,-0.0519,-0.0531,-0.0553,-0.0556,-0.0618,-0.0635,-0.0675,-0.0667,-0.0692,-0.0719,-0.0651,-0.0708,-0.0697,-0.0694,-0.068,-0.0769,-0.0731,-0.0703,-0.0707,-0.071,-0.0674,-0.0673,-0.0672,-0.0671,0,-0.0477,-0.049,-0.0492,-0.0478,-0.0481,-0.0473,-0.0494,-0.0499,-0.0559,-0.0617,-0.059,-0.0578,-0.0559,-0.0582,-0.0553,-0.0551,-0.0702,-0.0636,-0.0648,-0.0732,-0.0703,-0.068,-0.0688,-0.0656,-0.0658,-0.0659,-0.066,0,-0.0454,-0.0444,-0.0444,-0.0436,-0.0419,-0.0383,-0.0406,-0.0411,-0.0432,-0.0504,-0.0477,-0.0483,-0.0541,-0.0497,-0.0458,-0.0448,-0.0485,-0.0509,-0.0528,-0.0545,-0.0511,-0.0453,-0.0298,0,0,0,0,0,-0.0418,-0.0405,-0.0392,-0.0359,-0.0338,-0.0328,-0.035,-0.0381,-0.0442,-0.0408,-0.0453,-0.0421,-0.039,-0.0383,-0.0348,-0.0391,-0.0479,-0.0347,-0.0516,-0.0573,-0.059,-0.0563,0,0,0,0,0,0,-0.0388,-0.0383,-0.038,-0.0299,-0.0258,-0.0221,-0.0228,-0.0269,-0.0265,-0.0337,-0.032,-0.038,-0.0352,-0.0399,-0.0332,-0.0334,-0.0427,-0.0364,-0.0362,-0.0563,-0.0579,-0.0593,-0.0571,0,0,0,0,0]},{"header":{"parameterUnit":"m.s-1","parameterCategory":2,"la1":30.2991,"la2":30.254,"lo1":-89.0895,"lo2":-89.0444,"dy":0.0017,"dx":0.0017,"nx":28,"ny":28,"refTime":"2023-08-08T09:00:00:Z","depth":"4","parameterNumber":3,"parameterNumberName":"V-component_of_CURRENTS"},"data":[0,0,0,0,0,0,0,0,0,0,0,0,0,0,0,0,0,0,0,0,0,0,0,0,0,0,0,0,0,0,0,0,0,0,0,0,0,0,0,0,0,0,0,0,0,0,0,0,0,0,0,0,0,0,0,0,0,0,0.0012,0.0012,0,-0.0006,-0.0007,-0.0007,0.0007,0.0007,0.0008,0.0009,0.0012,0.0011,0.0011,0,0,0,0,0,0,0,0,0,0,0,0,0,0.004,0.004,0.0012,0.0012,0.0012,-0.0006,-0.0007,-0.0007,0.0006,0.0007,0.0008,0.0009,0.0012,0.0011,0.0011,0,0,0,0,0,0,0,0,0,0,0,0,0,0.0024,0.0039,0.0012,0.0018,0.0018,-0.0006,-0.0007,-0.0007,0.0006,0.0007,0.0009,0.001,0.0012,0.0012,0.0011,-0.0019,0,0,0.0008,0.0007,0,0,0,0,0,0,0,0,0.0025,0.0022,0.0017,0.0017,0.0018,0.0005,0.0005,-0.0009,0.0006,0.0009,0.0009,0.001,0.0012,0.0011,0.0002,-0.0019,-0.0019,0.0008,0.0007,0.0007,0.0006,0,0,0,0,0,0,0,0.0026,0.0023,0.0003,0.0017,0.0017,0.0015,0.0014,0.0002,0.0003,0.0009,0.001,0.0011,0.0012,0.0003,0.0002,-0.0018,0.0008,0.0007,0.0006,0.0006,-0.0087,-0.0089,0,0,0,0,0,0,0.0032,0.0024,0.0003,0.0002,0.0027,0.0014,0.0013,0.0007,0.0003,0.0004,0.001,0.0012,0.0004,0.0003,0.0003,-0.0047,0.0007,0.0006,0.0005,-0.0085,-0.0087,-0.0089,0,0,0,0,0,0,0.0032,0.0029,0.0004,0.0015,0.0012,0.0013,0.0005,0.0006,0.0003,0.0004,0.0005,0.0009,0.0005,0.0004,-0.0018,-0.0046,0.0005,0.0004,-0.0083,-0.0086,-0.0088,-0.0136,0,0,0,0,0,0,0.0033,0.003,0.0023,0.0015,0.0012,-0.0013,0.0005,0.0004,0.0003,0.0005,0.0003,0.0004,0.0006,-0.0017,-0.0019,-0.0046,0.0004,-0.0081,-0.0084,-0.0088,-0.0132,-0.014,-0.0147,0,0,0,0,0,0.0034,0.0016,0.0022,0.002,0.0003,-0.0014,-0.0017,-0.0013,0.0002,-0.0009,-0.0014,0.0005,-0.0041,-0.0019,-0.0021,-0.0049,-0.0079,-0.0083,-0.0087,-0.0128,-0.0138,-0.0147,0,0,0,0,0,0,0.0025,0.0016,0.0022,0.0003,-0.0003,-0.0011,-0.0022,-0.0014,-0.0027,-0.0022,-0.0017,-0.0018,-0.0049,-0.0047,-0.0022,-0.0089,-0.0058,-0.0063,-0.0089,-0.0098,-0.0106,-0.0103,0.0003,0,0,0,0,0,0.002,0.0004,0.0001,-0.0014,-0.0019,-0.0018,-0.0024,-0.002,-0.0028,-0.0032,-0.004,-0.0052,-0.0072,-0.008,-0.0098,-0.0131,-0.0115,-0.0153,-0.016,-0.0166,-0.0168,-0.0176,-0.0184,-0.0103,-0.0103,-0.0103,0,0,0.0014,0.0006,-0.0001,-0.0017,-0.0022,-0.0046,-0.002,-0.0031,-0.0054,-0.0031,-0.0072,-0.0076,-0.0087,-0.0128,-0.0142,-0.0126,-0.0181,-0.0172,-0.0177,-0.0175,-0.0181,-0.0189,-0.0195,-0.0106,-0.0106,-0.0105,0,0,-0.001,-0.0014,-0.0035,-0.0049,-0.0057,-0.0062,-0.0064,-0.0076,-0.0084,-0.0119,-0.0114,-0.0137,-0.0167,-0.0186,-0.0197,-0.0258,-0.0221,-0.0261,-0.0295,-0.0303,-0.0309,-0.0314,-0.0298,-0.0301,-0.0264,-0.0265,-0.0265,0,-0.0015,-0.0043,-0.0043,-0.0071,-0.0087,-0.0071,-0.0099,-0.0115,-0.0135,-0.015,-0.0139,-0.0194,-0.0201,-0.0248,-0.027,-0.0275,-0.0257,-0.0256,-0.0311,-0.0315,-0.032,-0.0302,-0.0305,-0.0267,-0.0267,-0.0267,-0.0266,0,-0.0055,-0.0081,-0.0097,-0.0129,-0.0148,-0.0169,-0.0185,-0.0206,-0.0211,-0.0223,-0.0265,-0.0279,-0.0307,-0.0319,-0.0312,-0.0354,-0.0324,-0.0316,-0.0281,-0.033,-0.0308,-0.0311,-0.0271,-0.027,-0.027,-0.0269,0,0,-0.0064,-0.0113,-0.012,-0.0144,-0.0179,-0.0196,-0.0243,-0.0276,-0.0301,-0.0323,-0.036,-0.0401,-0.0389,-0.0401,-0.0396,-0.0404,-0.0421,-0.0371,-0.037,-0.0343,-0.0414,-0.0353,-0.0349,-0.0413,-0.0414,-0.0415,-0.0383,0,-0.0094,-0.0148,-0.0171,-0.0229,-0.0258,-0.0274,-0.032,-0.0348,-0.0368,-0.0404,-0.0413,-0.0448,-0.0426,-0.0437,-0.0443,-0.0427,-0.043,-0.0429,-0.0381,-0.038,-0.031,-0.0351,-0.0418,-0.0384,-0.0385,-0.0385,-0.0385,0,-0.0128,-0.0161,-0.0218,-0.0276,-0.029,-0.0326,-0.0381,-0.0419,-0.0462,-0.0478,-0.0502,-0.0502,-0.0525,-0.0498,-0.0488,-0.0481,-0.0454,-0.0435,-0.0434,-0.0361,-0.0323,-0.0329,-0.0388,-0.0388,-0.0388,-0.0388,-0.0388,0,-0.0132,-0.0196,-0.0239,-0.0263,-0.0327,-0.0358,-0.0389,-0.044,-0.0473,-0.0523,-0.0541,-0.056,-0.0568,-0.0546,-0.0498,-0.0496,-0.0466,-0.0463,-0.0382,-0.0376,-0.0416,-0.0411,-0.0461,-0.0461,-0.0461,-0.0461,-0.0461,0,-0.0163,-0.0202,-0.0243,-0.0274,-0.0328,-0.0367,-0.0427,-0.0463,-0.0511,-0.0546,-0.0571,-0.0585,-0.058,-0.0555,-0.0511,-0.0439,-0.0476,-0.0391,-0.0371,-0.0437,-0.0435,-0.0417,-0.0412,-0.046,-0.046,-0.046,-0.0461,0,-0.0179,-0.0206,-0.0258,-0.0315,-0.0336,-0.0375,-0.0444,-0.0484,-0.0525,-0.0569,-0.0585,-0.0608,-0.0568,-0.0532,-0.0493,-0.0452,-0.0398,-0.0363,-0.0418,-0.0401,-0.03,-0.0299,-0.0285,-0.0283,-0.0281,-0.0279,-0.0278,0,-0.0196,-0.0224,-0.0279,-0.0309,-0.0341,-0.0397,-0.044,-0.0492,-0.0524,-0.0568,-0.0581,-0.0569,-0.0564,-0.0454,-0.0426,-0.0338,-0.0322,-0.0307,-0.0326,-0.0303,-0.0286,-0.0287,-0.0288,-0.0275,-0.0275,-0.0274,-0.0274,0,-0.0232,-0.0244,-0.0282,-0.0328,-0.0373,-0.043,-0.0481,-0.0497,-0.0547,-0.0575,-0.056,-0.0527,-0.0475,-0.0419,-0.0346,-0.0288,-0.033,-0.0287,-0.0291,-0.0309,-0.0291,-0.0275,-0.0279,-0.0267,-0.0268,-0.0268,-0.0269,0,-0.0255,-0.0275,-0.0308,-0.0345,-0.04,-0.0445,-0.0475,-0.0495,-0.0522,-0.0544,-0.0531,-0.0492,-0.0482,-0.039,-0.0323,-0.0257,-0.0249,-0.025,-0.0256,-0.0263,-0.0265,-0.0239,-0.0186,0,0,0,0,0,-0.0273,-0.0287,-0.0325,-0.0366,-0.0414,-0.044,-0.0498,-0.052,-0.0541,-0.0516,-0.0519,-0.0459,-0.0371,-0.035,-0.0268,-0.0296,-0.0249,-0.0201,-0.0255,-0.023,-0.0238,-0.0238,0,0,0,0,0,0,-0.0296,-0.0322,-0.032,-0.0365,-0.0389,-0.0447,-0.048,-0.05,-0.0479,-0.0487,-0.0432,-0.0427,-0.0334,-0.0392,-0.0255,-0.0242,-0.0266,-0.0166,-0.0164,-0.0226,-0.0233,-0.0239,-0.0242,0,0,0,0,0]}]]